NOAA NWS Hourly Roundups by Site

Regional Weather Roundup for State College, PA

To Select Another Site Choose from List

Select Site:  

000
ASUS41 KCTP 060210
RWRCTP

REGIONAL WEATHER ROUNDUP
NATIONAL WEATHER SERVICE STATE COLLEGE PA
900 PM EST SUN FEB 05 2023

Note: "fair" indicates few or no clouds below 12,000 feet with no
significant weather and/or obstructions to visibility.

* = STATION THAT DOES NOT REPORT PRECIPITATION /E.G. RAIN...SNOW...ETC/
    THUNDER OR FOG.

PAZ002>004-007>009-013>016-020>023-029>032-060300-
WESTERN PENNSYLVANIA

CITY           SKY/WX    TMP DP  RH WIND       PRES   REMARKS
ERIE           CLOUDY    40  32  73 W9        29.92R
MEADVILLE      CLOUDY    41  32  70 SW7       29.90S
FRANKLIN       LGT RAIN  41  33  73 SW6       29.91F
NEW CASTLE     CLOUDY    45  31  58 SW9       29.93S
BEAVER COUNTY  CLOUDY    48  30  50 W9        29.93R
BUTLER         LGT RAIN  45  33  63 W7        29.93S
PITTSBURGH INT CLOUDY    48  30  49 W5        29.93R
PITTSBURGH     CLOUDY    49  29  46 SW8       29.92S
INDIANA*       CLOUDY    46  30  53 W8        29.96S
LATROBE        CLOUDY    45  28  53 S6        29.95R
WASHINGTON CO* CLOUDY    50  31  48 SW13      29.96S
$$

PAZ004>006-010>012-017>019-024>028-033>037-041-042-045-046-049>053-060300-
CENTRAL PENNSYLVANIA

CITY           SKY/WX    TMP DP  RH WIND       PRES   REMARKS
BRADFORD       CLOUDY    41  32  70 VRB5      29.89S
ST MARYS       CLOUDY    43  30  61 W5        29.93S
DUBOIS         CLOUDY    45  29  53 W10       29.90S
CLEARFIELD     CLOUDY    45  26  47 VRB3      29.92S
JOHNSTOWN      CLOUDY    44  24  45 SW10      29.92R
SOMERSET       CLOUDY    41  25  52 SW6       29.93S
ALTOONA        CLOUDY    43  25  49 SW8       29.94S
STATE COLLEGE  CLOUDY    45  23  42 SW5       29.93S
REEDSVILLE     MOCLDY    34  23  64 CALM      29.95S
WELLSBORO      CLOUDY    43  28  56 SW8       29.89S
WILLIAMSPORT   CLOUDY    39  23  52 E8        29.95F
SELINSGROVE    CLOUDY    35  24  64 CALM      29.98S
FT INDIANTOWN  NOT AVBL
CAPITAL CITY   CLOUDY    37  24  59 CALM      29.99F
HARRISBURG     CLOUDY    38  24  57 CALM      29.99S
YORK           CLOUDY    34  24  67 CALM      29.98F
$$

PAZ038>040-043-044-047-048-054-055-060>062-067>071-060300-
EASTERN PENNSYLVANIA

CITY           SKY/WX    TMP DP  RH WIND       PRES   REMARKS
TOWANDA        CLOUDY    41  21  45 CALM      29.97S
SCRANTON       CLOUDY    42  21  43 SW6       29.96F
MOUNT POCONO   CLOUDY    36  21  54 SW7       29.95S
HAZLETON       CLOUDY    37  21  52 CALM      29.99S
LEHIGHTON      MOCLDY    30  23  74 CALM      30.01F
ALLENTOWN      MOCLDY    36  21  54 CALM      30.01S
QN CITY/ALNTWN FAIR      37  23  56 CALM      30.02S
QUAKERTOWN*    CLEAR     34  23  64 CALM      30.01S
PERKASIE*      MOCLDY    34  21  60 CALM      30.01F
DOYLESTOWN     CLOUDY    39  21  48 CALM      30.00F
READING        MOCLDY    39  22  50 S3        30.00S
LANCASTER      CLOUDY    35  25  66 CALM      30.00S
COATESVILLE    CLOUDY    43  27  52 CALM      30.00F
WEST CHESTER   MOCLDY    43  28  56 MISG      30.01S
POTTSTOWN      NOT AVBL
BLUE BELL      CLOUDY    34  24  66 CALM      30.01F
NORTH PHILA    MOCLDY    44  26  49 SW3       30.03F
PHILADELPHIA   MOCLDY    44  30  57 SW5       30.02S
$$


 

View Past Reports for State College, PA.

Products Courtesy of NOAA-NWS
NWS Information Parsing Script by Ken True at Saratoga Weather - Script by SE Lincoln Weather.